Wetterdaten: Mittwoch, 22.07.2015
Datum Zeit Temp. A. Feuchte A. Luftdruck Regen Wind Richtung Richtung Sonnenschein ET UV Solar Taupunkt Windchill Windben Empfang
22.07.2015 00:00 21,8 C 69 % 1012,9 hPa 0,0 l/m 0,0 km/h (0 Bft) NO 47 0 min 0,000 mm 0,0 UV-I 0 W/m 15,9 C 21,8 C 0,0 km/h (0 Bft) 0,00 %
22.07.2015 00:05 21,7 C 69 % 1012,9 hPa 0,0 l/m 0,0 km/h (0 Bft) N-NO 31 0 min 0,000 mm 0,0 UV-I 0 W/m 15,8 C 21,7 C 0,0 km/h (0 Bft) 0,00 %
22.07.2015 00:10 21,6 C 70 % 1012,7 hPa 0,0 l/m 0,0 km/h (0 Bft) NO 43 0 min 0,000 mm 0,0 UV-I 0 W/m 15,9 C 21,6 C 0,0 km/h (0 Bft) 0,00 %
22.07.2015 00:15 21,5 C 70 % 1012,9 hPa 0,0 l/m 0,0 km/h (0 Bft) NO 43 0 min 0,000 mm 0,0 UV-I 0 W/m 15,8 C 21,5 C 0,0 km/h (0 Bft) 0,00 %
22.07.2015 00:20 21,3 C 71 % 1013,0 hPa 0,0 l/m 0,0 km/h (0 Bft) NO 43 0 min 0,000 mm 0,0 UV-I 0 W/m 15,8 C 21,3 C 0,0 km/h (0 Bft) 0,00 %
22.07.2015 00:25 21,1 C 71 % 1013,1 hPa 0,0 l/m 0,0 km/h (0 Bft) NO 43 0 min 0,000 mm 0,0 UV-I 0 W/m 15,6 C 21,1 C 0,0 km/h (0 Bft) 0,00 %
22.07.2015 00:30 21,0 C 73 % 1013,0 hPa 0,0 l/m 0,0 km/h (0 Bft) NO 44 0 min 0,000 mm 0,0 UV-I 0 W/m 16,0 C 21,0 C 0,0 km/h (0 Bft) 0,00 %
22.07.2015 00:35 20,8 C 72 % 1013,2 hPa 0,0 l/m 0,0 km/h (0 Bft) NO 48 0 min 0,000 mm 0,0 UV-I 0 W/m 15,6 C 20,8 C 0,0 km/h (0 Bft) 0,00 %
22.07.2015 00:40 20,7 C 73 % 1013,1 hPa 0,0 l/m 0,0 km/h (0 Bft) NO 48 0 min 0,000 mm 0,0 UV-I 0 W/m 15,7 C 20,7 C 0,0 km/h (0 Bft) 0,00 %
22.07.2015 00:45 20,6 C 74 % 1013,0 hPa 0,0 l/m 0,0 km/h (0 Bft) NO 46 0 min 0,000 mm 0,0 UV-I 0 W/m 15,8 C 20,6 C 0,0 km/h (0 Bft) 0,00 %
22.07.2015 00:50 20,4 C 74 % 1013,2 hPa 0,0 l/m 0,0 km/h (0 Bft) NO 50 0 min 0,000 mm 0,0 UV-I 0 W/m 15,6 C 20,4 C 0,0 km/h (0 Bft) 0,00 %
22.07.2015 00:55 20,3 C 74 % 1013,2 hPa 0,0 l/m 0,0 km/h (0 Bft) NO 50 0 min 0,000 mm 0,0 UV-I 0 W/m 15,5 C 20,3 C 0,0 km/h (0 Bft) 0,00 %
22.07.2015 01:00 20,1 C 75 % 1013,0 hPa 0,0 l/m 0,0 km/h (0 Bft) NO 50 0 min 0,000 mm 0,0 UV-I 0 W/m 15,5 C 20,1 C 0,0 km/h (0 Bft) 0,00 %
22.07.2015 01:05 20,0 C 76 % 1013,1 hPa 0,0 l/m 0,0 km/h (0 Bft) NO 43 0 min 0,000 mm 0,0 UV-I 0 W/m 15,6 C 20,0 C 0,0 km/h (0 Bft) 0,00 %
22.07.2015 01:10 19,9 C 76 % 1012,9 hPa 0,0 l/m 0,0 km/h (0 Bft) NO 46 0 min 0,000 mm 0,0 UV-I 0 W/m 15,5 C 19,9 C 0,0 km/h (0 Bft) 0,00 %
22.07.2015 01:15 19,9 C 77 % 1012,9 hPa 0,0 l/m 0,0 km/h (0 Bft) NO 40 0 min 0,000 mm 0,0 UV-I 0 W/m 15,7 C 19,9 C 0,0 km/h (0 Bft) 0,00 %
22.07.2015 01:20 19,8 C 77 % 1013,1 hPa 0,0 l/m 0,0 km/h (0 Bft) NO 51 0 min 0,000 mm 0,0 UV-I 0 W/m 15,6 C 19,8 C 0,0 km/h (0 Bft) 0,00 %
22.07.2015 01:25 19,8 C 77 % 1013,1 hPa 0,0 l/m 0,0 km/h (0 Bft) NO 46 0 min 0,000 mm 0,0 UV-I 0 W/m 15,6 C 19,8 C 0,0 km/h (0 Bft) 0,00 %
22.07.2015 01:30 19,7 C 77 % 1013,0 hPa 0,0 l/m 0,0 km/h (0 Bft) NO 48 0 min 0,000 mm 0,0 UV-I 0 W/m 15,5 C 19,7 C 0,0 km/h (0 Bft) 0,00 %
22.07.2015 01:35 19,7 C 77 % 1013,0 hPa 0,0 l/m 0,0 km/h (0 Bft) NO 43 0 min 0,000 mm 0,0 UV-I 0 W/m 15,5 C 19,7 C 0,0 km/h (0 Bft) 0,00 %
22.07.2015 01:40 19,6 C 77 % 1013,0 hPa 0,0 l/m 0,0 km/h (0 Bft) NO 48 0 min 0,000 mm 0,0 UV-I 0 W/m 15,5 C 19,6 C 0,0 km/h (0 Bft) 0,00 %
22.07.2015 01:45 19,5 C 79 % 1013,1 hPa 0,0 l/m 0,0 km/h (0 Bft) O 86 0 min 0,000 mm 0,0 UV-I 0 W/m 15,8 C 19,5 C 0,0 km/h (0 Bft) 0,00 %
22.07.2015 01:50 19,5 C 79 % 1013,1 hPa 0,0 l/m 0,0 km/h (0 Bft) NO 53 0 min 0,000 mm 0,0 UV-I 0 W/m 15,8 C 19,5 C 0,0 km/h (0 Bft) 0,00 %
22.07.2015 01:55 19,4 C 79 % 1013,4 hPa 0,0 l/m 0,0 km/h (0 Bft) NO 48 0 min 0,000 mm 0,0 UV-I 0 W/m 15,7 C 19,4 C 0,0 km/h (0 Bft) 0,00 %
22.07.2015 02:00 19,4 C 79 % 1013,3 hPa 0,0 l/m 0,0 km/h (0 Bft) NO 45 0 min 0,000 mm 0,0 UV-I 0 W/m 15,7 C 19,4 C 0,0 km/h (0 Bft) 0,00 %
22.07.2015 02:05 19,3 C 80 % 1013,3 hPa 0,0 l/m 0,0 km/h (0 Bft) NO 35 0 min 0,000 mm 0,0 UV-I 0 W/m 15,8 C 19,3 C 0,0 km/h (0 Bft) 0,00 %
22.07.2015 02:10 19,1 C 80 % 1013,3 hPa 0,0 l/m 0,0 km/h (0 Bft) NO 52 0 min 0,000 mm 0,0 UV-I 0 W/m 15,6 C 19,1 C 0,0 km/h (0 Bft) 0,00 %
22.07.2015 02:15 19,0 C 81 % 1013,3 hPa 0,0 l/m 0,0 km/h (0 Bft) NO 42 0 min 0,000 mm 0,0 UV-I 0 W/m 15,7 C 19,0 C 0,0 km/h (0 Bft) 0,00 %
22.07.2015 02:20 19,0 C 82 % 1013,2 hPa 0,0 l/m 0,0 km/h (0 Bft) NO 45 0 min 0,000 mm 0,0 UV-I 0 W/m 15,9 C 19,0 C 0,0 km/h (0 Bft) 0,00 %
22.07.2015 02:25 18,9 C 82 % 1013,4 hPa 0,0 l/m 0,0 km/h (0 Bft) NO 45 0 min 0,000 mm 0,0 UV-I 0 W/m 15,8 C 18,9 C 0,0 km/h (0 Bft) 0,00 %
22.07.2015 02:30 18,7 C 83 % 1013,5 hPa 0,0 l/m 0,0 km/h (0 Bft) NO 43 0 min 0,000 mm 0,0 UV-I 0 W/m 15,8 C 18,7 C 0,0 km/h (0 Bft) 0,00 %
22.07.2015 02:35 18,5 C 83 % 1013,6 hPa 0,0 l/m 0,0 km/h (0 Bft) NO 38 0 min 0,000 mm 0,0 UV-I 0 W/m 15,6 C 18,5 C 0,0 km/h (0 Bft) 0,00 %
22.07.2015 02:40 18,3 C 83 % 1013,4 hPa 0,0 l/m 0,0 km/h (0 Bft) NO 43 0 min 0,000 mm 0,0 UV-I 0 W/m 15,4 C 18,3 C 0,0 km/h (0 Bft) 0,00 %
22.07.2015 02:45 18,2 C 84 % 1013,7 hPa 0,0 l/m 0,0 km/h (0 Bft) NO 45 0 min 0,000 mm 0,0 UV-I 0 W/m 15,4 C 18,2 C 0,0 km/h (0 Bft) 0,00 %
22.07.2015 02:50 18,2 C 84 % 1013,6 hPa 0,0 l/m 0,0 km/h (0 Bft) NO 46 0 min 0,000 mm 0,0 UV-I 0 W/m 15,4 C 18,2 C 0,0 km/h (0 Bft) 0,00 %
22.07.2015 02:55 18,1 C 83 % 1013,7 hPa 0,0 l/m 0,0 km/h (0 Bft) NO 45 0 min 0,000 mm 0,0 UV-I 0 W/m 15,2 C 18,1 C 0,0 km/h (0 Bft) 0,00 %
22.07.2015 03:00 18,0 C 84 % 1013,8 hPa 0,0 l/m 0,0 km/h (0 Bft) NO 48 0 min 0,000 mm 0,0 UV-I 0 W/m 15,3 C 18,0 C 0,0 km/h (0 Bft) 0,00 %
22.07.2015 03:05 18,0 C 84 % 1013,9 hPa 0,0 l/m 0,0 km/h (0 Bft) O-NO 69 0 min 0,000 mm 0,0 UV-I 0 W/m 15,3 C 18,0 C 0,0 km/h (0 Bft) 0,00 %
22.07.2015 03:10 18,1 C 84 % 1013,6 hPa 0,0 l/m 0,0 km/h (0 Bft) NO 36 0 min 0,000 mm 0,0 UV-I 0 W/m 15,4 C 18,1 C 0,0 km/h (0 Bft) 0,00 %
22.07.2015 03:15 18,1 C 84 % 1013,7 hPa 0,0 l/m 0,0 km/h (0 Bft) NO 48 0 min 0,000 mm 0,0 UV-I 0 W/m 15,4 C 18,1 C 0,0 km/h (0 Bft) 0,00 %
22.07.2015 03:20 17,9 C 86 % 1013,9 hPa 0,0 l/m 0,0 km/h (0 Bft) O-NO 60 0 min 0,000 mm 0,0 UV-I 0 W/m 15,5 C 17,9 C 0,0 km/h (0 Bft) 0,00 %
22.07.2015 03:25 17,7 C 85 % 1013,7 hPa 0,0 l/m 0,0 km/h (0 Bft) NO 41 0 min 0,000 mm 0,0 UV-I 0 W/m 15,1 C 17,7 C 0,0 km/h (0 Bft) 0,00 %
22.07.2015 03:30 17,6 C 86 % 1013,8 hPa 0,0 l/m 0,0 km/h (0 Bft) NO 42 0 min 0,000 mm 0,0 UV-I 0 W/m 15,2 C 17,6 C 0,0 km/h (0 Bft) 0,00 %
22.07.2015 03:35 17,6 C 86 % 1013,9 hPa 0,0 l/m 0,0 km/h (0 Bft) NO 55 0 min 0,000 mm 0,0 UV-I 0 W/m 15,2 C 17,6 C 0,0 km/h (0 Bft) 0,00 %
22.07.2015 03:40 17,5 C 86 % 1014,0 hPa 0,0 l/m 0,0 km/h (0 Bft) NO 43 0 min 0,000 mm 0,0 UV-I 0 W/m 15,1 C 17,5 C 0,0 km/h (0 Bft) 0,00 %
22.07.2015 03:45 17,5 C 86 % 1014,1 hPa 0,0 l/m 0,0 km/h (0 Bft) NO 42 0 min 0,000 mm 0,0 UV-I 0 W/m 15,1 C 17,5 C 0,0 km/h (0 Bft) 0,00 %
22.07.2015 03:50 17,4 C 86 % 1013,9 hPa 0,0 l/m 0,0 km/h (0 Bft) NO 43 0 min 0,000 mm 0,0 UV-I 0 W/m 15,0 C 17,4 C 0,0 km/h (0 Bft) 0,00 %
22.07.2015 03:55 17,3 C 86 % 1013,8 hPa 0,0 l/m 0,0 km/h (0 Bft) NO 38 0 min 0,000 mm 0,0 UV-I 0 W/m 14,9 C 17,3 C 0,0 km/h (0 Bft) 0,00 %
22.07.2015 04:00 17,2 C 87 % 1014,0 hPa 0,0 l/m 0,0 km/h (0 Bft) NO 43 0 min 0,000 mm 0,0 UV-I 0 W/m 15,0 C 17,2 C 0,0 km/h (0 Bft) 0,00 %
22.07.2015 04:05 17,2 C 87 % 1013,8 hPa 0,0 l/m 0,0 km/h (0 Bft) O-NO 59 0 min 0,000 mm 0,0 UV-I 0 W/m 15,0 C 17,2 C 0,0 km/h (0 Bft) 0,00 %
22.07.2015 04:10 17,1 C 87 % 1013,8 hPa 0,0 l/m 0,0 km/h (0 Bft) NO 45 0 min 0,000 mm 0,0 UV-I 0 W/m 14,9 C 17,1 C 0,0 km/h (0 Bft) 0,00 %
22.07.2015 04:15 17,1 C 87 % 1013,8 hPa 0,0 l/m 0,0 km/h (0 Bft) NO 41 0 min 0,000 mm 0,0 UV-I 0 W/m 14,9 C 17,1 C 0,0 km/h (0 Bft) 0,00 %
22.07.2015 04:20 17,1 C 88 % 1013,9 hPa 0,0 l/m 0,0 km/h (0 Bft) O-NO 57 0 min 0,000 mm 0,0 UV-I 0 W/m 15,1 C 17,1 C 0,0 km/h (0 Bft) 0,00 %
22.07.2015 04:25 17,1 C 88 % 1013,9 hPa 0,0 l/m 0,0 km/h (0 Bft) NO 42 0 min 0,000 mm 0,0 UV-I 0 W/m 15,1 C 17,1 C 0,0 km/h (0 Bft) 0,00 %
22.07.2015 04:30 17,0 C 87 % 1013,9 hPa 0,0 l/m 0,0 km/h (0 Bft) NO 48 0 min 0,000 mm 0,0 UV-I 0 W/m 14,8 C 17,0 C 0,0 km/h (0 Bft) 0,00 %
22.07.2015 04:35 17,0 C 88 % 1013,9 hPa 0,0 l/m 0,0 km/h (0 Bft) NO 47 0 min 0,000 mm 0,0 UV-I 0 W/m 15,0 C 17,0 C 0,0 km/h (0 Bft) 0,00 %
22.07.2015 04:40 16,8 C 88 % 1013,8 hPa 0,0 l/m 0,0 km/h (0 Bft) O-NO 70 0 min 0,000 mm 0,0 UV-I 0 W/m 14,8 C 16,8 C 0,0 km/h (0 Bft) 0,00 %
22.07.2015 04:45 16,7 C 88 % 1013,9 hPa 0,0 l/m 0,0 km/h (0 Bft) NO 44 0 min 0,000 mm 0,0 UV-I 0 W/m 14,7 C 16,7 C 0,0 km/h (0 Bft) 0,00 %
22.07.2015 04:50 16,7 C 88 % 1014,0 hPa 0,0 l/m 0,0 km/h (0 Bft) NO 44 0 min 0,000 mm 0,0 UV-I 0 W/m 14,7 C 16,7 C 0,0 km/h (0 Bft) 0,00 %
22.07.2015 04:55 16,6 C 89 % 1014,3 hPa 0,0 l/m 0,0 km/h (0 Bft) NO 42 0 min 0,000 mm 0,0 UV-I 0 W/m 14,8 C 16,6 C 0,0 km/h (0 Bft) 0,00 %
22.07.2015 05:00 16,6 C 89 % 1014,2 hPa 0,0 l/m 0,0 km/h (0 Bft) NO 42 0 min 0,000 mm 0,0 UV-I 0 W/m 14,8 C 16,6 C 0,0 km/h (0 Bft) 0,00 %
22.07.2015 05:05 16,6 C 88 % 1014,1 hPa 0,0 l/m 0,0 km/h (0 Bft) NO 50 0 min 0,000 mm 0,0 UV-I 0 W/m 14,6 C 16,6 C 0,0 km/h (0 Bft) 0,00 %
22.07.2015 05:10 16,6 C 89 % 1014,1 hPa 0,0 l/m 0,0 km/h (0 Bft) NO 43 0 min 0,000 mm 0,0 UV-I 0 W/m 14,8 C 16,6 C 0,0 km/h (0 Bft) 0,00 %
22.07.2015 05:15 16,6 C 89 % 1014,0 hPa 0,0 l/m 0,0 km/h (0 Bft) NO 38 0 min 0,000 mm 0,0 UV-I 0 W/m 14,8 C 16,6 C 0,0 km/h (0 Bft) 0,00 %
22.07.2015 05:20 16,6 C 89 % 1013,8 hPa 0,0 l/m 0,0 km/h (0 Bft) NO 40 0 min 0,000 mm 0,0 UV-I 0 W/m 14,8 C 16,6 C 0,0 km/h (0 Bft) 0,00 %
22.07.2015 05:25 16,6 C 89 % 1013,8 hPa 0,0 l/m 0,0 km/h (0 Bft) N-NO 29 0 min 0,000 mm 0,0 UV-I 0 W/m 14,8 C 16,6 C 0,0 km/h (0 Bft) 0,00 %
22.07.2015 05:30 16,5 C 89 % 1013,7 hPa 0,0 l/m 0,0 km/h (0 Bft) NO 44 0 min 0,000 mm 0,0 UV-I 0 W/m 14,7 C 16,5 C 0,0 km/h (0 Bft) 0,00 %
22.07.2015 05:35 16,5 C 89 % 1013,8 hPa 0,0 l/m 0,0 km/h (0 Bft) O-NO 57 0 min 0,000 mm 0,0 UV-I 3 W/m 14,7 C 16,5 C 0,0 km/h (0 Bft) 0,00 %
22.07.2015 05:40 16,4 C 89 % 1014,0 hPa 0,0 l/m 0,0 km/h (0 Bft) NO 55 0 min 0,000 mm 0,0 UV-I 7 W/m 14,6 C 16,4 C 0,0 km/h (0 Bft) 0,00 %
22.07.2015 05:45 16,5 C 89 % 1013,8 hPa 0,0 l/m 0,0 km/h (0 Bft) NO 44 0 min 0,000 mm 0,0 UV-I 16 W/m 14,7 C 16,5 C 0,0 km/h (0 Bft) 0,00 %
22.07.2015 05:50 16,5 C 89 % 1013,9 hPa 0,0 l/m 0,0 km/h (0 Bft) NO 49 0 min 0,000 mm 0,0 UV-I 21 W/m 14,7 C 16,5 C 0,0 km/h (0 Bft) 0,00 %
22.07.2015 05:55 16,6 C 89 % 1013,8 hPa 0,0 l/m 0,0 km/h (0 Bft) NO 50 5 min 0,000 mm 0,0 UV-I 36 W/m 14,8 C 16,6 C 0,0 km/h (0 Bft) 0,00 %
22.07.2015 06:00 16,6 C 89 % 1013,8 hPa 0,0 l/m 0,0 km/h (0 Bft) NO 41 5 min 0,000 mm 0,0 UV-I 51 W/m 14,8 C 16,6 C 0,0 km/h (0 Bft) 0,00 %
22.07.2015 06:05 16,8 C 90 % 1013,9 hPa 0,0 l/m 0,0 km/h (0 Bft) NO 48 5 min 0,000 mm 0,0 UV-I 68 W/m 15,1 C 16,8 C 0,0 km/h (0 Bft) 0,00 %
22.07.2015 06:10 17,3 C 89 % 1013,7 hPa 0,0 l/m 0,0 km/h (0 Bft) NO 41 5 min 0,000 mm 0,0 UV-I 143 W/m 15,5 C 17,3 C 0,0 km/h (0 Bft) 0,00 %
22.07.2015 06:15 18,0 C 85 % 1013,4 hPa 0,0 l/m 0,0 km/h (0 Bft) NO 40 5 min 0,000 mm 0,0 UV-I 166 W/m 15,4 C 18,0 C 0,0 km/h (0 Bft) 0,00 %
22.07.2015 06:20 18,9 C 82 % 1013,6 hPa 0,0 l/m 0,0 km/h (0 Bft) NO 49 5 min 0,000 mm 0,0 UV-I 190 W/m 15,8 C 18,9 C 0,0 km/h (0 Bft) 0,00 %
22.07.2015 06:25 19,8 C 76 % 1013,5 hPa 0,0 l/m 0,0 km/h (0 Bft) NO 48 5 min 0,000 mm 0,0 UV-I 212 W/m 15,4 C 19,8 C 0,0 km/h (0 Bft) 0,00 %
22.07.2015 06:30 20,6 C 72 % 1013,4 hPa 0,0 l/m 0,0 km/h (0 Bft) NO 45 5 min 0,000 mm 0,0 UV-I 237 W/m 15,4 C 20,6 C 0,0 km/h (0 Bft) 0,00 %
22.07.2015 06:35 21,4 C 70 % 1013,1 hPa 0,0 l/m 0,0 km/h (0 Bft) NO 44 5 min 0,000 mm 0,0 UV-I 260 W/m 15,7 C 21,4 C 0,0 km/h (0 Bft) 0,00 %
22.07.2015 06:40 22,0 C 67 % 1013,1 hPa 0,0 l/m 0,0 km/h (0 Bft) O-NO 58 5 min 0,000 mm 1,0 UV-I 282 W/m 15,6 C 22,0 C 0,0 km/h (0 Bft) 0,00 %
22.07.2015 06:45 22,7 C 64 % 1012,9 hPa 0,0 l/m 0,0 km/h (0 Bft) NO 50 5 min 0,000 mm 1,0 UV-I 303 W/m 15,5 C 22,7 C 0,0 km/h (0 Bft) 0,00 %
22.07.2015 06:50 23,4 C 62 % 1012,9 hPa 0,0 l/m 0,0 km/h (0 Bft) NO 44 5 min 0,000 mm 1,0 UV-I 323 W/m 15,7 C 23,4 C 0,0 km/h (0 Bft) 0,00 %
22.07.2015 06:55 24,0 C 61 % 1013,0 hPa 0,0 l/m 0,0 km/h (0 Bft) NO 40 5 min 0,000 mm 1,0 UV-I 340 W/m 16,0 C 24,0 C 0,0 km/h (0 Bft) 0,00 %
22.07.2015 07:00 24,4 C 59 % 1012,9 hPa 0,0 l/m 0,0 km/h (0 Bft) NO 42 5 min 0,000 mm 1,0 UV-I 354 W/m 15,9 C 24,4 C 0,0 km/h (0 Bft) 0,00 %
22.07.2015 07:05 24,9 C 59 % 1012,6 hPa 0,0 l/m 0,0 km/h (0 Bft) NO 36 5 min 0,000 mm 1,0 UV-I 365 W/m 16,3 C 24,9 C 0,0 km/h (0 Bft) 0,00 %
22.07.2015 07:10 25,3 C 57 % 1012,5 hPa 0,0 l/m 0,0 km/h (0 Bft) NO 38 5 min 0,000 mm 1,0 UV-I 374 W/m 16,2 C 25,3 C 0,0 km/h (0 Bft) 0,00 %
22.07.2015 07:15 25,8 C 55 % 1012,7 hPa 0,0 l/m 0,0 km/h (0 Bft) NO 46 5 min 0,000 mm 1,0 UV-I 383 W/m 16,1 C 25,8 C 0,0 km/h (0 Bft) 0,00 %
22.07.2015 07:20 26,2 C 55 % 1012,5 hPa 0,0 l/m 0,0 km/h (0 Bft) NO 43 5 min 0,000 mm 1,0 UV-I 390 W/m 16,4 C 26,2 C 0,0 km/h (0 Bft) 0,00 %
22.07.2015 07:25 26,5 C 53 % 1012,4 hPa 0,0 l/m 0,0 km/h (0 Bft) NO 51 5 min 0,000 mm 1,0 UV-I 395 W/m 16,1 C 26,5 C 0,0 km/h (0 Bft) 0,00 %
22.07.2015 07:30 26,7 C 53 % 1012,5 hPa 0,0 l/m 0,0 km/h (0 Bft) NO 49 5 min 0,000 mm 1,0 UV-I 397 W/m 16,3 C 26,7 C 0,0 km/h (0 Bft) 0,00 %
22.07.2015 07:35 26,8 C 54 % 1012,3 hPa 0,0 l/m 0,0 km/h (0 Bft) NO 41 5 min 0,000 mm 1,0 UV-I 398 W/m 16,7 C 26,8 C 0,0 km/h (0 Bft) 0,00 %
22.07.2015 07:40 26,9 C 53 % 1012,5 hPa 0,0 l/m 0,0 km/h (0 Bft) NO 46 5 min 0,000 mm 1,0 UV-I 401 W/m 16,5 C 26,9 C 0,0 km/h (0 Bft) 0,00 %
22.07.2015 07:45 27,0 C 53 % 1012,3 hPa 0,0 l/m 0,0 km/h (0 Bft) N-NO 33 5 min 0,000 mm 1,0 UV-I 406 W/m 16,6 C 27,0 C 0,0 km/h (0 Bft) 0,00 %
22.07.2015 07:50 27,2 C 53 % 1012,3 hPa 0,0 l/m 0,0 km/h (0 Bft) NO 42 5 min 0,000 mm 1,0 UV-I 409 W/m 16,8 C 27,2 C 0,0 km/h (0 Bft) 0,00 %
22.07.2015 07:55 27,4 C 52 % 1012,5 hPa 0,0 l/m 0,0 km/h (0 Bft) NO 52 5 min 0,000 mm 1,0 UV-I 415 W/m 16,7 C 27,4 C 0,0 km/h (0 Bft) 0,00 %
22.07.2015 08:00 27,7 C 48 % 1012,3 hPa 0,0 l/m 0,0 km/h (0 Bft) NO 40 5 min 0,000 mm 1,0 UV-I 418 W/m 15,7 C 27,7 C 0,0 km/h (0 Bft) 0,00 %
22.07.2015 08:05 28,0 C 48 % 1012,3 hPa 0,0 l/m 0,0 km/h (0 Bft) O 79 5 min 0,000 mm 1,0 UV-I 421 W/m 15,9 C 28,0 C 0,0 km/h (0 Bft) 0,00 %
22.07.2015 08:10 28,1 C 48 % 1012,3 hPa 0,0 l/m 0,4 km/h (0 Bft) NO 38 5 min 0,000 mm 1,0 UV-I 426 W/m 16,0 C 28,1 C 4,0 km/h (1 Bft) 0,00 %
22.07.2015 08:15 28,1 C 48 % 1012,4 hPa 0,0 l/m 0,0 km/h (0 Bft) N-NO 12 5 min 0,000 mm 1,0 UV-I 428 W/m 16,0 C 28,1 C 0,0 km/h (0 Bft) 0,00 %
22.07.2015 08:20 27,9 C 50 % 1012,4 hPa 0,0 l/m 0,7 km/h (0 Bft) NO 45 5 min 0,000 mm 1,0 UV-I 433 W/m 16,5 C 27,9 C 4,0 km/h (1 Bft) 0,00 %
22.07.2015 08:25 27,8 C 48 % 1012,4 hPa 0,0 l/m 0,7 km/h (0 Bft) N 353 5 min 0,000 mm 1,0 UV-I 401 W/m 15,8 C 27,8 C 4,0 km/h (1 Bft) 0,00 %
22.07.2015 08:30 28,0 C 47 % 1012,3 hPa 0,0 l/m 0,0 km/h (0 Bft) O-NO 68 5 min 0,000 mm 1,0 UV-I 445 W/m 15,6 C 28,0 C 0,0 km/h (0 Bft) 0,00 %
22.07.2015 08:35 28,5 C 46 % 1012,1 hPa 0,0 l/m 0,7 km/h (0 Bft) O-NO 76 5 min 0,000 mm 1,0 UV-I 454 W/m 15,7 C 28,5 C 4,0 km/h (1 Bft) 0,00 %
22.07.2015 08:40 28,7 C 47 % 1012,4 hPa 0,0 l/m 0,4 km/h (0 Bft) O 96 5 min 0,000 mm 2,0 UV-I 463 W/m 16,3 C 28,7 C 4,0 km/h (1 Bft) 0,00 %
22.07.2015 08:45 28,6 C 46 % 1012,1 hPa 0,0 l/m 0,0 km/h (0 Bft) O 95 5 min 0,000 mm 2,0 UV-I 476 W/m 15,8 C 28,6 C 0,0 km/h (0 Bft) 0,00 %
22.07.2015 08:50 28,4 C 45 % 1012,1 hPa 0,0 l/m 0,0 km/h (0 Bft) O-NO 58 5 min 0,000 mm 2,0 UV-I 483 W/m 15,3 C 28,4 C 0,0 km/h (0 Bft) 0,00 %
22.07.2015 08:55 28,5 C 46 % 1012,3 hPa 0,0 l/m 2,2 km/h (1 Bft) O 82 5 min 0,000 mm 2,0 UV-I 494 W/m 15,7 C 28,5 C 4,0 km/h (1 Bft) 0,00 %
22.07.2015 09:00 28,8 C 45 % 1012,0 hPa 0,0 l/m 0,0 km/h (0 Bft) O-NO 71 5 min 0,000 mm 2,0 UV-I 504 W/m 15,7 C 28,8 C 0,0 km/h (0 Bft) 0,00 %
22.07.2015 09:05 29,0 C 45 % 1011,8 hPa 0,0 l/m 0,7 km/h (0 Bft) O-NO 72 5 min 0,000 mm 2,0 UV-I 513 W/m 15,8 C 29,0 C 4,0 km/h (1 Bft) 0,00 %
22.07.2015 09:10 29,2 C 44 % 1011,9 hPa 0,0 l/m 0,0 km/h (0 Bft) N 352 5 min 0,000 mm 2,0 UV-I 520 W/m 15,7 C 29,2 C 0,0 km/h (0 Bft) 0,00 %
22.07.2015 09:15 29,4 C 46 % 1011,8 hPa 0,0 l/m 0,0 km/h (0 Bft) N-NO 29 5 min 0,000 mm 2,0 UV-I 535 W/m 16,5 C 29,4 C 0,0 km/h (0 Bft) 0,00 %
22.07.2015 09:20 29,7 C 45 % 1011,6 hPa 0,0 l/m 0,0 km/h (0 Bft) N-NO 16 5 min 0,000 mm 2,0 UV-I 543 W/m 16,5 C 29,7 C 0,0 km/h (0 Bft) 0,00 %
22.07.2015 09:25 29,8 C 45 % 1011,8 hPa 0,0 l/m 0,4 km/h (0 Bft) O-NO 60 5 min 0,000 mm 2,0 UV-I 556 W/m 16,6 C 29,8 C 4,0 km/h (1 Bft) 0,00 %
22.07.2015 09:30 29,8 C 46 % 1011,7 hPa 0,0 l/m 0,0 km/h (0 Bft) N-NO 31 5 min 0,000 mm 2,0 UV-I 567 W/m 16,9 C 29,8 C 0,0 km/h (0 Bft) 0,00 %
22.07.2015 09:35 29,9 C 44 % 1011,7 hPa 0,0 l/m 1,4 km/h (1 Bft) O 93 5 min 0,000 mm 2,0 UV-I 583 W/m 16,3 C 29,9 C 4,0 km/h (1 Bft) 0,00 %
22.07.2015 09:40 30,3 C 42 % 1011,5 hPa 0,0 l/m 0,0 km/h (0 Bft) NO 41 5 min 0,000 mm 2,0 UV-I 586 W/m 15,9 C 30,3 C 0,0 km/h (0 Bft) 0,00 %
22.07.2015 09:45 30,6 C 43 % 1011,6 hPa 0,0 l/m 2,9 km/h (1 Bft) O 85 5 min 0,000 mm 2,0 UV-I 592 W/m 16,6 C 30,6 C 4,0 km/h (1 Bft) 0,00 %
22.07.2015 09:50 30,4 C 44 % 1011,5 hPa 0,0 l/m 2,2 km/h (1 Bft) O-SO 106 5 min 0,000 mm 2,0 UV-I 602 W/m 16,7 C 30,4 C 4,0 km/h (1 Bft) 0,00 %
22.07.2015 09:55 30,0 C 45 % 1011,4 hPa 0,0 l/m 4,7 km/h (1 Bft) O-SO 112 5 min 0,000 mm 3,0 UV-I 613 W/m 16,7 C 30,0 C 7,9 km/h (2 Bft) 0,00 %
22.07.2015 10:00 30,0 C 44 % 1011,5 hPa 0,0 l/m 0,4 km/h (0 Bft) O-NO 73 5 min 0,000 mm 3,0 UV-I 628 W/m 16,4 C 30,0 C 4,0 km/h (1 Bft) 0,00 %
22.07.2015 10:05 30,3 C 44 % 1011,1 hPa 0,0 l/m 0,0 km/h (0 Bft) NO 41 5 min 0,000 mm 3,0 UV-I 640 W/m 16,7 C 30,3 C 0,0 km/h (0 Bft) 0,00 %
22.07.2015 10:10 30,7 C 43 % 1011,3 hPa 0,0 l/m 4,0 km/h (1 Bft) O-SO 106 5 min 0,000 mm 3,0 UV-I 653 W/m 16,7 C 30,7 C 7,9 km/h (2 Bft) 0,00 %
22.07.2015 10:15 31,0 C 42 % 1011,1 hPa 0,0 l/m 0,0 km/h (0 Bft) NO 39 5 min 0,000 mm 3,0 UV-I 669 W/m 16,6 C 31,0 C 0,0 km/h (0 Bft) 0,00 %
22.07.2015 10:20 31,1 C 41 % 1011,2 hPa 0,0 l/m 0,0 km/h (0 Bft) N-NO 30 5 min 0,000 mm 3,0 UV-I 679 W/m 16,3 C 31,1 C 0,0 km/h (0 Bft) 0,00 %
22.07.2015 10:25 31,2 C 43 % 1011,2 hPa 0,0 l/m 4,7 km/h (1 Bft) O-NO 59 5 min 0,000 mm 3,0 UV-I 693 W/m 17,1 C 31,2 C 7,9 km/h (2 Bft) 0,00 %
22.07.2015 10:30 31,2 C 42 % 1011,0 hPa 0,0 l/m 1,4 km/h (1 Bft) NO 47 5 min 0,000 mm 3,0 UV-I 704 W/m 16,7 C 31,2 C 4,0 km/h (1 Bft) 0,00 %
22.07.2015 10:35 31,3 C 41 % 1010,9 hPa 0,0 l/m 2,2 km/h (1 Bft) O 99 5 min 0,000 mm 3,0 UV-I 715 W/m 16,4 C 31,3 C 4,0 km/h (1 Bft) 0,00 %
22.07.2015 10:40 31,4 C 42 % 1011,1 hPa 0,0 l/m 4,0 km/h (1 Bft) O 90 5 min 0,000 mm 3,0 UV-I 730 W/m 16,9 C 31,4 C 7,9 km/h (2 Bft) 0,00 %
22.07.2015 10:45 31,5 C 41 % 1011,0 hPa 0,0 l/m 9,7 km/h (2 Bft) O 101 5 min 0,000 mm 3,0 UV-I 740 W/m 16,6 C 31,4 C 11,9 km/h (2 Bft) 0,00 %
22.07.2015 10:50 31,5 C 41 % 1011,0 hPa 0,0 l/m 0,0 km/h (0 Bft) O 81 5 min 0,000 mm 4,0 UV-I 751 W/m 16,6 C 31,5 C 0,0 km/h (0 Bft) 0,00 %
22.07.2015 10:55 31,8 C 42 % 1010,9 hPa 0,0 l/m 0,0 km/h (0 Bft) N-NO 27 5 min 0,000 mm 4,0 UV-I 762 W/m 17,3 C 31,8 C 0,0 km/h (0 Bft) 0,00 %
22.07.2015 11:00 32,2 C 42 % 1010,7 hPa 0,0 l/m 4,0 km/h (1 Bft) SO 131 5 min 0,000 mm 4,0 UV-I 769 W/m 17,6 C 32,2 C 7,9 km/h (2 Bft) 0,00 %
22.07.2015 11:05 32,2 C 42 % 1010,6 hPa 0,0 l/m 4,7 km/h (1 Bft) O-NO 71 5 min 0,000 mm 4,0 UV-I 774 W/m 17,6 C 32,2 C 7,9 km/h (2 Bft) 0,00 %
22.07.2015 11:10 32,1 C 42 % 1010,6 hPa 0,0 l/m 0,7 km/h (0 Bft) O 92 5 min 0,000 mm 4,0 UV-I 780 W/m 17,5 C 32,1 C 4,0 km/h (1 Bft) 0,00 %
22.07.2015 11:15 32,1 C 42 % 1010,6 hPa 0,0 l/m 2,9 km/h (1 Bft) O-NO 59 5 min 0,000 mm 4,0 UV-I 792 W/m 17,5 C 32,1 C 4,0 km/h (1 Bft) 0,00 %
22.07.2015 11:20 32,4 C 41 % 1010,3 hPa 0,0 l/m 0,4 km/h (0 Bft) O-NO 71 5 min 0,000 mm 4,0 UV-I 798 W/m 17,4 C 32,4 C 4,0 km/h (1 Bft) 0,00 %
22.07.2015 11:25 32,6 C 42 % 1010,4 hPa 0,0 l/m 0,7 km/h (0 Bft) SO 124 5 min 0,000 mm 5,0 UV-I 797 W/m 18,0 C 32,6 C 4,0 km/h (1 Bft) 0,00 %
22.07.2015 11:30 32,5 C 42 % 1010,4 hPa 0,0 l/m 2,9 km/h (1 Bft) O-NO 58 5 min 0,000 mm 5,0 UV-I 804 W/m 17,9 C 32,5 C 4,0 km/h (1 Bft) 0,00 %
22.07.2015 11:35 32,5 C 41 % 1010,4 hPa 0,0 l/m 9,0 km/h (2 Bft) NO 36 5 min 0,000 mm 5,0 UV-I 816 W/m 17,5 C 32,5 C 11,9 km/h (2 Bft) 0,00 %
22.07.2015 11:40 32,5 C 42 % 1010,2 hPa 0,0 l/m 4,3 km/h (1 Bft) O 92 5 min 0,000 mm 5,0 UV-I 820 W/m 17,9 C 32,5 C 7,9 km/h (2 Bft) 0,00 %
22.07.2015 11:45 32,6 C 39 % 1010,1 hPa 0,0 l/m 0,7 km/h (0 Bft) O-NO 67 5 min 0,000 mm 5,0 UV-I 826 W/m 16,8 C 32,6 C 4,0 km/h (1 Bft) 0,00 %
22.07.2015 11:50 32,9 C 37 % 1009,9 hPa 0,0 l/m 1,4 km/h (1 Bft) O-NO 76 5 min 0,000 mm 5,0 UV-I 836 W/m 16,2 C 32,9 C 4,0 km/h (1 Bft) 0,00 %
22.07.2015 11:55 33,1 C 35 % 1009,9 hPa 0,0 l/m 0,7 km/h (0 Bft) NO 54 5 min 0,000 mm 5,0 UV-I 847 W/m 15,6 C 33,1 C 4,0 km/h (1 Bft) 0,00 %
22.07.2015 12:00 33,2 C 36 % 1009,9 hPa 0,0 l/m 0,7 km/h (0 Bft) O-NO 57 5 min 0,000 mm 5,0 UV-I 840 W/m 16,1 C 33,2 C 4,0 km/h (1 Bft) 0,00 %
22.07.2015 12:05 33,2 C 35 % 1009,9 hPa 0,0 l/m 6,8 km/h (2 Bft) O 101 5 min 0,000 mm 5,0 UV-I 851 W/m 15,6 C 33,2 C 7,9 km/h (2 Bft) 0,00 %
22.07.2015 12:10 33,1 C 35 % 1009,7 hPa 0,0 l/m 0,0 km/h (0 Bft) NO 36 5 min 0,000 mm 5,0 UV-I 856 W/m 15,6 C 33,1 C 0,0 km/h (0 Bft) 0,00 %
22.07.2015 12:15 33,0 C 37 % 1009,7 hPa 0,0 l/m 0,7 km/h (0 Bft) O-NO 65 5 min 0,000 mm 5,0 UV-I 862 W/m 16,3 C 33,0 C 4,0 km/h (1 Bft) 0,00 %
22.07.2015 12:20 33,1 C 35 % 1009,6 hPa 0,0 l/m 7,9 km/h (2 Bft) O-SO 118 5 min 0,000 mm 5,0 UV-I 867 W/m 15,6 C 33,1 C 11,9 km/h (2 Bft) 0,00 %
22.07.2015 12:25 33,1 C 34 % 1009,6 hPa 0,0 l/m 1,8 km/h (1 Bft) O-NO 61 5 min 0,000 mm 5,0 UV-I 884 W/m 15,1 C 33,1 C 4,0 km/h (1 Bft) 0,00 %
22.07.2015 12:30 33,0 C 33 % 1009,4 hPa 0,0 l/m 0,4 km/h (0 Bft) N-NW 347 5 min 0,000 mm 5,0 UV-I 883 W/m 14,5 C 33,0 C 4,0 km/h (1 Bft) 0,00 %
22.07.2015 12:35 33,2 C 33 % 1009,6 hPa 0,0 l/m 7,9 km/h (2 Bft) O 96 5 min 0,000 mm 6,0 UV-I 883 W/m 14,7 C 33,2 C 11,9 km/h (2 Bft) 0,00 %
22.07.2015 12:40 33,5 C 34 % 1009,4 hPa 0,0 l/m 5,4 km/h (1 Bft) O 99 5 min 0,000 mm 6,0 UV-I 890 W/m 15,4 C 33,5 C 7,9 km/h (2 Bft) 0,00 %
22.07.2015 12:45 33,6 C 35 % 1009,2 hPa 0,0 l/m 0,0 km/h (0 Bft) NO 41 5 min 0,000 mm 6,0 UV-I 898 W/m 16,0 C 33,6 C 0,0 km/h (0 Bft) 0,00 %
22.07.2015 12:50 33,5 C 33 % 1009,2 hPa 0,0 l/m 0,4 km/h (0 Bft) N-NO 32 5 min 0,000 mm 6,0 UV-I 902 W/m 15,0 C 33,5 C 4,0 km/h (1 Bft) 0,00 %
22.07.2015 12:55 33,6 C 34 % 1009,2 hPa 0,0 l/m 2,9 km/h (1 Bft) NO 35 5 min 0,000 mm 6,0 UV-I 902 W/m 15,5 C 33,6 C 4,0 km/h (1 Bft) 0,00 %
22.07.2015 13:00 33,8 C 31 % 1009,2 hPa 0,0 l/m 7,9 km/h (2 Bft) SO 137 5 min 0,000 mm 6,0 UV-I 905 W/m 14,3 C 33,8 C 7,9 km/h (2 Bft) 0,00 %
22.07.2015 13:05 34,0 C 32 % 1009,1 hPa 0,0 l/m 8,3 km/h (2 Bft) O-NO 73 5 min 0,000 mm 6,0 UV-I 905 W/m 14,9 C 34,0 C 11,9 km/h (2 Bft) 0,00 %
22.07.2015 13:10 33,9 C 32 % 1009,1 hPa 0,0 l/m 2,9 km/h (1 Bft) O-NO 71 5 min 0,000 mm 6,0 UV-I 921 W/m 14,8 C 33,9 C 4,0 km/h (1 Bft) 0,00 %
22.07.2015 13:15 33,8 C 32 % 1008,9 hPa 0,0 l/m 0,7 km/h (0 Bft) O 92 5 min 0,000 mm 5,0 UV-I 919 W/m 14,8 C 33,8 C 4,0 km/h (1 Bft) 0,00 %
22.07.2015 13:20 33,9 C 30 % 1008,8 hPa 0,0 l/m 3,2 km/h (1 Bft) NO 42 5 min 0,000 mm 5,0 UV-I 929 W/m 13,9 C 33,9 C 7,9 km/h (2 Bft) 0,00 %
22.07.2015 13:25 34,0 C 31 % 1008,9 hPa 0,0 l/m 7,2 km/h (2 Bft) O-NO 57 5 min 0,000 mm 5,0 UV-I 934 W/m 14,4 C 34,0 C 11,9 km/h (2 Bft) 0,00 %
22.07.2015 13:30 33,9 C 30 % 1008,7 hPa 0,0 l/m 4,3 km/h (1 Bft) N-NO 29 5 min 0,000 mm 5,0 UV-I 941 W/m 13,9 C 33,9 C 7,9 km/h (2 Bft) 0,00 %
22.07.2015 13:35 33,9 C 31 % 1008,7 hPa 0,0 l/m 0,7 km/h (0 Bft) N 349 5 min 0,000 mm 5,0 UV-I 946 W/m 14,4 C 33,9 C 4,0 km/h (1 Bft) 0,00 %
22.07.2015 13:40 34,1 C 31 % 1008,7 hPa 0,0 l/m 0,0 km/h (0 Bft) NO 42 5 min 0,000 mm 5,0 UV-I 951 W/m 14,5 C 34,1 C 0,0 km/h (0 Bft) 0,00 %
22.07.2015 13:45 34,3 C 31 % 1008,4 hPa 0,0 l/m 4,3 km/h (1 Bft) S-SO 151 5 min 0,000 mm 5,0 UV-I 954 W/m 14,7 C 34,3 C 7,9 km/h (2 Bft) 0,00 %
22.07.2015 13:50 34,5 C 30 % 1008,4 hPa 0,0 l/m 2,9 km/h (1 Bft) O-NO 74 5 min 0,000 mm 5,0 UV-I 952 W/m 14,4 C 34,5 C 4,0 km/h (1 Bft) 0,00 %
22.07.2015 13:55 34,6 C 30 % 1008,2 hPa 0,0 l/m 5,4 km/h (1 Bft) SO 130 5 min 0,000 mm 5,0 UV-I 955 W/m 14,5 C 34,6 C 7,9 km/h (2 Bft) 0,00 %
22.07.2015 14:00 34,7 C 30 % 1008,0 hPa 0,0 l/m 1,4 km/h (1 Bft) N-NO 22 5 min 0,000 mm 5,0 UV-I 960 W/m 14,5 C 34,7 C 4,0 km/h (1 Bft) 0,00 %
22.07.2015 14:05 34,6 C 30 % 1008,0 hPa 0,0 l/m 0,0 km/h (0 Bft) O-NO 59 5 min 0,000 mm 5,0 UV-I 966 W/m 14,5 C 34,6 C 0,0 km/h (0 Bft) 0,00 %
22.07.2015 14:10 34,6 C 29 % 1007,9 hPa 0,0 l/m 0,4 km/h (0 Bft) N-NO 26 5 min 0,000 mm 5,0 UV-I 973 W/m 13,9 C 34,6 C 4,0 km/h (1 Bft) 0,00 %
22.07.2015 14:15 34,6 C 30 % 1007,9 hPa 0,0 l/m 2,9 km/h (1 Bft) NO 36 5 min 0,000 mm 5,0 UV-I 973 W/m 14,5 C 34,6 C 4,0 km/h (1 Bft) 0,00 %
22.07.2015 14:20 34,7 C 28 % 1007,8 hPa 0,0 l/m 5,8 km/h (2 Bft) O-SO 105 5 min 0,000 mm 5,0 UV-I 979 W/m 13,5 C 34,7 C 7,9 km/h (2 Bft) 0,00 %
22.07.2015 14:25 34,9 C 26 % 1007,9 hPa 0,0 l/m 4,0 km/h (1 Bft) N-NO 29 5 min 0,000 mm 5,0 UV-I 975 W/m 12,5 C 34,9 C 7,9 km/h (2 Bft) 0,00 %
22.07.2015 14:30 35,0 C 26 % 1007,7 hPa 0,0 l/m 0,0 km/h (0 Bft) N 0 5 min 0,000 mm 5,0 UV-I 972 W/m 12,6 C 35,0 C 0,0 km/h (0 Bft) 0,00 %
22.07.2015 14:35 35,0 C 28 % 1007,5 hPa 0,0 l/m 0,7 km/h (0 Bft) NO 49 5 min 0,000 mm 5,0 UV-I 970 W/m 13,7 C 35,0 C 4,0 km/h (1 Bft) 0,00 %
22.07.2015 14:40 35,2 C 29 % 1007,4 hPa 0,0 l/m 2,2 km/h (1 Bft) O 81 5 min 0,000 mm 5,0 UV-I 971 W/m 14,4 C 35,2 C 4,0 km/h (1 Bft) 0,00 %
22.07.2015 14:45 35,2 C 29 % 1007,4 hPa 0,0 l/m 10,4 km/h (2 Bft) O-SO 105 5 min 0,000 mm 4,0 UV-I 976 W/m 14,4 C 35,2 C 11,9 km/h (2 Bft) 0,00 %
22.07.2015 14:50 35,1 C 29 % 1007,2 hPa 0,0 l/m 0,7 km/h (0 Bft) N-NW 342 5 min 0,000 mm 4,0 UV-I 974 W/m 14,4 C 35,1 C 4,0 km/h (1 Bft) 0,00 %
22.07.2015 14:55 35,1 C 27 % 1007,1 hPa 0,0 l/m 0,4 km/h (0 Bft) N-NW 337 5 min 0,000 mm 4,0 UV-I 984 W/m 13,3 C 35,1 C 4,0 km/h (1 Bft) 0,00 %
22.07.2015 15:00 35,2 C 28 % 1007,2 hPa 0,0 l/m 4,3 km/h (1 Bft) O-NO 61 5 min 0,000 mm 4,0 UV-I 982 W/m 13,9 C 35,2 C 7,9 km/h (2 Bft) 0,00 %
22.07.2015 15:05 35,3 C 24 % 1007,0 hPa 0,0 l/m 0,7 km/h (0 Bft) N-NW 336 5 min 0,000 mm 4,0 UV-I 969 W/m 11,6 C 35,3 C 4,0 km/h (1 Bft) 0,00 %
22.07.2015 15:10 35,5 C 24 % 1007,0 hPa 0,0 l/m 0,0 km/h (0 Bft) NO 48 5 min 0,000 mm 4,0 UV-I 962 W/m 11,8 C 35,5 C 0,0 km/h (0 Bft) 0,00 %
22.07.2015 15:15 35,8 C 27 % 1006,7 hPa 0,0 l/m 0,7 km/h (0 Bft) N 10 5 min 0,000 mm 4,0 UV-I 965 W/m 13,8 C 35,8 C 4,0 km/h (1 Bft) 0,00 %
22.07.2015 15:20 35,8 C 28 % 1006,6 hPa 0,0 l/m 1,4 km/h (1 Bft) O-NO 76 5 min 0,000 mm 4,0 UV-I 960 W/m 14,4 C 35,8 C 4,0 km/h (1 Bft) 0,00 %
22.07.2015 15:25 35,6 C 28 % 1006,9 hPa 0,0 l/m 0,4 km/h (0 Bft) O-NO 76 5 min 0,000 mm 4,0 UV-I 950 W/m 14,2 C 35,6 C 4,0 km/h (1 Bft) 0,00 %
22.07.2015 15:30 35,3 C 29 % 1006,6 hPa 0,0 l/m 0,7 km/h (0 Bft) N-NO 26 5 min 0,000 mm 4,0 UV-I 951 W/m 14,5 C 35,3 C 4,0 km/h (1 Bft) 0,00 %
22.07.2015 15:35 35,2 C 26 % 1006,7 hPa 0,0 l/m 0,4 km/h (0 Bft) O 99 5 min 0,000 mm 4,0 UV-I 957 W/m 12,8 C 35,2 C 4,0 km/h (1 Bft) 0,00 %
22.07.2015 15:40 35,4 C 28 % 1006,4 hPa 0,0 l/m 4,7 km/h (1 Bft) O-SO 111 5 min 0,000 mm 3,0 UV-I 951 W/m 14,1 C 35,4 C 7,9 km/h (2 Bft) 0,00 %
22.07.2015 15:45 35,5 C 29 % 1006,4 hPa 0,0 l/m 1,8 km/h (1 Bft) O-NO 71 5 min 0,000 mm 3,0 UV-I 949 W/m 14,7 C 35,5 C 4,0 km/h (1 Bft) 0,00 %
22.07.2015 15:50 35,4 C 29 % 1006,3 hPa 0,0 l/m 2,2 km/h (1 Bft) S-SW 207 5 min 0,000 mm 3,0 UV-I 928 W/m 14,6 C 35,4 C 4,0 km/h (1 Bft) 0,00 %
22.07.2015 15:55 35,5 C 27 % 1006,3 hPa 0,0 l/m 0,4 km/h (0 Bft) NO 39 5 min 0,000 mm 3,0 UV-I 919 W/m 13,6 C 35,5 C 4,0 km/h (1 Bft) 0,00 %
22.07.2015 16:00 35,8 C 29 % 1006,0 hPa 0,0 l/m 0,7 km/h (0 Bft) NO 40 5 min 0,000 mm 3,0 UV-I 915 W/m 14,9 C 35,8 C 4,0 km/h (1 Bft) 0,00 %
22.07.2015 16:05 35,9 C 29 % 1006,0 hPa 0,0 l/m 2,9 km/h (1 Bft) O 80 5 min 0,000 mm 3,0 UV-I 917 W/m 15,0 C 35,9 C 4,0 km/h (1 Bft) 0,00 %
22.07.2015 16:10 35,7 C 29 % 1005,9 hPa 0,0 l/m 7,9 km/h (2 Bft) O 86 5 min 0,000 mm 3,0 UV-I 904 W/m 14,9 C 35,7 C 7,9 km/h (2 Bft) 0,00 %
22.07.2015 16:15 35,5 C 30 % 1005,8 hPa 0,0 l/m 6,8 km/h (2 Bft) SO 133 5 min 0,000 mm 3,0 UV-I 893 W/m 15,2 C 35,5 C 11,9 km/h (2 Bft) 0,00 %
22.07.2015 16:20 35,4 C 29 % 1005,8 hPa 0,0 l/m 0,0 km/h (0 Bft) O-NO 59 5 min 0,000 mm 3,0 UV-I 877 W/m 14,6 C 35,4 C 0,0 km/h (0 Bft) 0,00 %
22.07.2015 16:25 35,4 C 29 % 1005,8 hPa 0,0 l/m 0,0 km/h (0 Bft) N 11 5 min 0,000 mm 3,0 UV-I 874 W/m 14,6 C 35,4 C 0,0 km/h (0 Bft) 0,00 %
22.07.2015 16:30 35,5 C 29 % 1005,7 hPa 0,0 l/m 5,4 km/h (1 Bft) O-NO 63 5 min 0,000 mm 3,0 UV-I 873 W/m 14,7 C 35,5 C 11,9 km/h (2 Bft) 0,00 %
22.07.2015 16:35 35,6 C 30 % 1005,6 hPa 0,0 l/m 0,0 km/h (0 Bft) O 101 5 min 0,000 mm 2,0 UV-I 857 W/m 15,3 C 35,6 C 0,0 km/h (0 Bft) 0,00 %
22.07.2015 16:40 35,5 C 30 % 1005,6 hPa 0,0 l/m 5,8 km/h (2 Bft) O 99 5 min 0,000 mm 2,0 UV-I 853 W/m 15,2 C 35,5 C 7,9 km/h (2 Bft) 0,00 %
22.07.2015 16:45 35,4 C 29 % 1005,4 hPa 0,0 l/m 2,9 km/h (1 Bft) NO 54 5 min 0,000 mm 2,0 UV-I 830 W/m 14,6 C 35,4 C 4,0 km/h (1 Bft) 0,00 %
22.07.2015 16:50 35,5 C 29 % 1005,4 hPa 0,0 l/m 4,0 km/h (1 Bft) O-SO 106 5 min 0,000 mm 2,0 UV-I 819 W/m 14,7 C 35,5 C 7,9 km/h (2 Bft) 0,00 %
22.07.2015 16:55 35,4 C 30 % 1005,3 hPa 0,0 l/m 1,4 km/h (1 Bft) O-NO 72 5 min 0,000 mm 2,0 UV-I 807 W/m 15,1 C 35,4 C 4,0 km/h (1 Bft) 0,00 %
22.07.2015 17:00 35,3 C 30 % 1005,2 hPa 0,0 l/m 0,0 km/h (0 Bft) O 98 5 min 0,000 mm 2,0 UV-I 806 W/m 15,0 C 35,3 C 0,0 km/h (0 Bft) 0,00 %
22.07.2015 17:05 35,4 C 30 % 1005,1 hPa 0,0 l/m 1,4 km/h (1 Bft) O-NO 58 5 min 0,000 mm 2,0 UV-I 807 W/m 15,1 C 35,4 C 4,0 km/h (1 Bft) 0,00 %
22.07.2015 17:10 35,5 C 30 % 1005,2 hPa 0,0 l/m 0,7 km/h (0 Bft) NO 52 5 min 0,000 mm 2,0 UV-I 798 W/m 15,2 C 35,5 C 4,0 km/h (1 Bft) 0,00 %
22.07.2015 17:15 35,5 C 30 % 1005,2 hPa 0,0 l/m 0,0 km/h (0 Bft) NO 43 5 min 0,000 mm 2,0 UV-I 792 W/m 15,2 C 35,5 C 0,0 km/h (0 Bft) 0,00 %
22.07.2015 17:20 35,4 C 30 % 1005,1 hPa 0,0 l/m 4,0 km/h (1 Bft) O 82 5 min 0,000 mm 1,0 UV-I 776 W/m 15,1 C 35,4 C 4,0 km/h (1 Bft) 0,00 %
22.07.2015 17:25 35,2 C 29 % 1005,3 hPa 0,0 l/m 3,2 km/h (1 Bft) O-NO 62 5 min 0,000 mm 1,0 UV-I 716 W/m 14,4 C 35,2 C 4,0 km/h (1 Bft) 0,00 %
22.07.2015 17:30 35,1 C 29 % 1005,3 hPa 0,0 l/m 0,7 km/h (0 Bft) S-SO 152 5 min 0,000 mm 1,0 UV-I 654 W/m 14,4 C 35,1 C 4,0 km/h (1 Bft) 0,00 %
22.07.2015 17:35 35,1 C 29 % 1005,1 hPa 0,0 l/m 8,3 km/h (2 Bft) O-NO 60 5 min 0,000 mm 1,0 UV-I 655 W/m 14,4 C 35,1 C 11,9 km/h (2 Bft) 0,00 %
22.07.2015 17:40 35,1 C 30 % 1005,2 hPa 0,0 l/m 4,7 km/h (1 Bft) O-NO 63 5 min 0,000 mm 1,0 UV-I 611 W/m 14,9 C 35,1 C 7,9 km/h (2 Bft) 0,00 %
22.07.2015 17:45 35,0 C 31 % 1005,3 hPa 0,0 l/m 7,2 km/h (2 Bft) O 96 5 min 0,000 mm 1,0 UV-I 624 W/m 15,3 C 35,0 C 7,9 km/h (2 Bft) 0,00 %
22.07.2015 17:50 34,9 C 29 % 1005,1 hPa 0,0 l/m 2,9 km/h (1 Bft) O-NO 65 5 min 0,000 mm 1,0 UV-I 534 W/m 14,2 C 34,9 C 4,0 km/h (1 Bft) 0,00 %
22.07.2015 17:55 35,0 C 29 % 1005,1 hPa 0,0 l/m 4,0 km/h (1 Bft) O 87 5 min 0,000 mm 1,0 UV-I 582 W/m 14,3 C 35,0 C 7,9 km/h (2 Bft) 0,00 %
22.07.2015 18:00 35,1 C 29 % 1004,8 hPa 0,0 l/m 7,2 km/h (2 Bft) O-NO 73 5 min 0,000 mm 1,0 UV-I 565 W/m 14,4 C 35,1 C 11,9 km/h (2 Bft) 0,00 %
22.07.2015 18:05 35,0 C 30 % 1004,9 hPa 0,0 l/m 6,5 km/h (2 Bft) O 87 5 min 0,000 mm 1,0 UV-I 565 W/m 14,8 C 35,0 C 7,9 km/h (2 Bft) 0,00 %
22.07.2015 18:10 34,8 C 31 % 1004,9 hPa 0,0 l/m 0,0 km/h (0 Bft) NO 36 5 min 0,000 mm 1,0 UV-I 491 W/m 15,1 C 34,8 C 0,0 km/h (0 Bft) 0,00 %
22.07.2015 18:15 34,7 C 30 % 1004,8 hPa 0,0 l/m 1,8 km/h (1 Bft) N 9 5 min 0,000 mm 1,0 UV-I 400 W/m 14,5 C 34,7 C 4,0 km/h (1 Bft) 0,00 %
22.07.2015 18:20 34,6 C 30 % 1004,9 hPa 0,0 l/m 4,7 km/h (1 Bft) SO 135 5 min 0,000 mm 1,0 UV-I 343 W/m 14,5 C 34,6 C 7,9 km/h (2 Bft) 0,00 %
22.07.2015 18:25 34,5 C 31 % 1004,6 hPa 0,0 l/m 7,2 km/h (2 Bft) O 93 5 min 0,000 mm 1,0 UV-I 325 W/m 14,9 C 34,5 C 11,9 km/h (2 Bft) 0,00 %
22.07.2015 18:30 34,4 C 31 % 1004,7 hPa 0,0 l/m 0,0 km/h (0 Bft) O 79 5 min 0,000 mm 1,0 UV-I 327 W/m 14,8 C 34,4 C 0,0 km/h (0 Bft) 0,00 %
22.07.2015 18:35 34,4 C 31 % 1004,6 hPa 0,0 l/m 0,4 km/h (0 Bft) O 101 5 min 0,000 mm 1,0 UV-I 282 W/m 14,8 C 34,4 C 4,0 km/h (1 Bft) 0,00 %
22.07.2015 18:40 34,3 C 30 % 1004,7 hPa 0,0 l/m 2,2 km/h (1 Bft) S 190 5 min 0,000 mm 1,0 UV-I 221 W/m 14,2 C 34,3 C 4,0 km/h (1 Bft) 0,00 %
22.07.2015 18:45 34,3 C 31 % 1004,7 hPa 0,0 l/m 3,2 km/h (1 Bft) O-SO 116 5 min 0,000 mm 1,0 UV-I 202 W/m 14,7 C 34,3 C 7,9 km/h (2 Bft) 0,00 %
22.07.2015 18:50 34,2 C 31 % 1004,6 hPa 0,0 l/m 4,3 km/h (1 Bft) O-NO 58 0 min 0,000 mm 1,0 UV-I 105 W/m 14,6 C 34,2 C 7,9 km/h (2 Bft) 0,00 %
22.07.2015 18:55 34,1 C 31 % 1004,6 hPa 0,0 l/m 4,7 km/h (1 Bft) O-SO 109 0 min 0,000 mm 1,0 UV-I 105 W/m 14,5 C 34,1 C 7,9 km/h (2 Bft) 0,00 %
22.07.2015 19:00 34,2 C 31 % 1004,7 hPa 0,0 l/m 0,0 km/h (0 Bft) O-NO 70 0 min 0,000 mm 1,0 UV-I 91 W/m 14,6 C 34,2 C 0,0 km/h (0 Bft) 0,00 %
22.07.2015 19:05 34,2 C 31 % 1004,8 hPa 0,0 l/m 0,4 km/h (0 Bft) N 355 0 min 0,000 mm 1,0 UV-I 64 W/m 14,6 C 34,2 C 4,0 km/h (1 Bft) 0,00 %
22.07.2015 19:10 34,1 C 33 % 1004,6 hPa 0,0 l/m 0,0 km/h (0 Bft) O 90 0 min 0,000 mm 1,0 UV-I 52 W/m 15,5 C 34,1 C 0,0 km/h (0 Bft) 0,00 %
22.07.2015 19:15 33,9 C 33 % 1004,7 hPa 0,0 l/m 1,4 km/h (1 Bft) O 100 0 min 0,000 mm 1,0 UV-I 43 W/m 15,3 C 33,9 C 4,0 km/h (1 Bft) 0,00 %
22.07.2015 19:20 33,5 C 34 % 1004,9 hPa 0,0 l/m 0,0 km/h (0 Bft) O 89 0 min 0,000 mm 1,0 UV-I 36 W/m 15,4 C 33,5 C 0,0 km/h (0 Bft) 0,00 %
22.07.2015 19:25 33,2 C 34 % 1004,7 hPa 0,0 l/m 0,0 km/h (0 Bft) O 85 0 min 0,000 mm 1,0 UV-I 30 W/m 15,2 C 33,2 C 0,0 km/h (0 Bft) 0,00 %
22.07.2015 19:30 33,0 C 35 % 1004,6 hPa 0,0 l/m 0,0 km/h (0 Bft) O 84 0 min 0,000 mm 0,0 UV-I 23 W/m 15,5 C 33,0 C 0,0 km/h (0 Bft) 0,00 %
22.07.2015 19:35 32,7 C 35 % 1004,9 hPa 0,0 l/m 0,4 km/h (0 Bft) NO 36 0 min 0,000 mm 0,0 UV-I 18 W/m 15,2 C 32,7 C 4,0 km/h (1 Bft) 0,00 %
22.07.2015 19:40 32,4 C 36 % 1004,6 hPa 0,0 l/m 0,4 km/h (0 Bft) SO 129 0 min 0,000 mm 0,0 UV-I 9 W/m 15,4 C 32,4 C 4,0 km/h (1 Bft) 0,00 %
22.07.2015 19:45 32,1 C 35 % 1004,8 hPa 0,0 l/m 0,0 km/h (0 Bft) O-NO 76 0 min 0,000 mm 0,0 UV-I 8 W/m 14,7 C 32,1 C 0,0 km/h (0 Bft) 0,00 %
22.07.2015 19:50 31,8 C 37 % 1004,7 hPa 0,0 l/m 0,0 km/h (0 Bft) O 97 0 min 0,000 mm 0,0 UV-I 8 W/m 15,3 C 31,8 C 0,0 km/h (0 Bft) 0,00 %
22.07.2015 19:55 31,6 C 37 % 1004,9 hPa 0,0 l/m 2,2 km/h (1 Bft) O 87 0 min 0,000 mm 0,0 UV-I 8 W/m 15,1 C 31,6 C 4,0 km/h (1 Bft) 0,00 %
22.07.2015 20:00 31,4 C 38 % 1004,5 hPa 0,0 l/m 2,9 km/h (1 Bft) NO 45 0 min 0,000 mm 0,0 UV-I 7 W/m 15,3 C 31,4 C 4,0 km/h (1 Bft) 0,00 %
22.07.2015 20:05 31,1 C 39 % 1004,8 hPa 0,0 l/m 2,2 km/h (1 Bft) O-SO 111 0 min 0,000 mm 0,0 UV-I 7 W/m 15,5 C 31,1 C 4,0 km/h (1 Bft) 0,00 %
22.07.2015 20:10 30,9 C 39 % 1004,6 hPa 0,0 l/m 0,4 km/h (0 Bft) O-SO 122 0 min 0,000 mm 0,0 UV-I 0 W/m 15,3 C 30,9 C 4,0 km/h (1 Bft) 0,00 %
22.07.2015 20:15 30,7 C 40 % 1004,5 hPa 0,0 l/m 0,4 km/h (0 Bft) SO 129 0 min 0,000 mm 0,0 UV-I 0 W/m 15,5 C 30,7 C 4,0 km/h (1 Bft) 0,00 %
22.07.2015 20:20 30,5 C 39 % 1004,9 hPa 0,0 l/m 0,0 km/h (0 Bft) O-SO 115 0 min 0,000 mm 0,0 UV-I 0 W/m 15,0 C 30,5 C 0,0 km/h (0 Bft) 0,00 %
22.07.2015 20:25 30,4 C 40 % 1004,9 hPa 0,0 l/m 0,0 km/h (0 Bft) O 81 0 min 0,000 mm 0,0 UV-I 0 W/m 15,3 C 30,4 C 0,0 km/h (0 Bft) 0,00 %
22.07.2015 20:30 30,1 C 40 % 1005,0 hPa 0,0 l/m 0,0 km/h (0 Bft) O 85 0 min 0,000 mm 0,0 UV-I 0 W/m 15,0 C 30,1 C 0,0 km/h (0 Bft) 0,00 %
22.07.2015 20:35 29,9 C 43 % 1005,0 hPa 0,0 l/m 0,0 km/h (0 Bft) O-NO 73 0 min 0,000 mm 0,0 UV-I 0 W/m 15,9 C 29,9 C 0,0 km/h (0 Bft) 0,00 %
22.07.2015 20:40 29,7 C 42 % 1005,0 hPa 0,0 l/m 0,0 km/h (0 Bft) O-NO 70 0 min 0,000 mm 0,0 UV-I 0 W/m 15,4 C 29,7 C 0,0 km/h (0 Bft) 0,00 %
22.07.2015 20:45 29,5 C 42 % 1005,0 hPa 0,0 l/m 0,0 km/h (0 Bft) O-NO 69 0 min 0,000 mm 0,0 UV-I 0 W/m 15,2 C 29,5 C 0,0 km/h (0 Bft) 0,00 %
22.07.2015 20:50 29,4 C 43 % 1005,1 hPa 0,0 l/m 0,0 km/h (0 Bft) O-NO 69 0 min 0,000 mm 0,0 UV-I 0 W/m 15,5 C 29,4 C 0,0 km/h (0 Bft) 0,00 %
22.07.2015 20:55 29,2 C 44 % 1005,0 hPa 0,0 l/m 0,0 km/h (0 Bft) O-NO 69 0 min 0,000 mm 0,0 UV-I 0 W/m 15,7 C 29,2 C 0,0 km/h (0 Bft) 0,00 %
22.07.2015 21:00 29,1 C 44 % 1005,4 hPa 0,0 l/m 0,0 km/h (0 Bft) O-NO 69 0 min 0,000 mm 0,0 UV-I 0 W/m 15,6 C 29,1 C 0,0 km/h (0 Bft) 0,00 %
22.07.2015 21:05 28,8 C 45 % 1005,3 hPa 0,0 l/m 0,0 km/h (0 Bft) O-NO 68 0 min 0,000 mm 0,0 UV-I 0 W/m 15,7 C 28,8 C 0,0 km/h (0 Bft) 0,00 %
22.07.2015 21:10 28,5 C 49 % 1005,5 hPa 0,0 l/m 0,0 km/h (0 Bft) O-NO 63 0 min 0,000 mm 0,0 UV-I 0 W/m 16,7 C 28,5 C 0,0 km/h (0 Bft) 0,00 %
22.07.2015 21:15 28,0 C 51 % 1006,0 hPa 0,0 l/m 1,8 km/h (1 Bft) W-SW 255 0 min 0,000 mm 0,0 UV-I 0 W/m 16,9 C 28,0 C 4,0 km/h (1 Bft) 0,00 %
22.07.2015 21:20 27,8 C 49 % 1006,3 hPa 0,0 l/m 4,3 km/h (1 Bft) W-SW 256 0 min 0,000 mm 0,0 UV-I 0 W/m 16,1 C 27,8 C 7,9 km/h (2 Bft) 0,00 %
22.07.2015 21:25 27,8 C 47 % 1006,5 hPa 0,0 l/m 0,0 km/h (0 Bft) NW 325 0 min 0,000 mm 0,0 UV-I 0 W/m 15,4 C 27,8 C 0,0 km/h (0 Bft) 0,00 %
22.07.2015 21:30 28,2 C 46 % 1006,6 hPa 0,0 l/m 0,0 km/h (0 Bft) N-NW 330 0 min 0,000 mm 0,0 UV-I 0 W/m 15,5 C 28,2 C 0,0 km/h (0 Bft) 0,00 %
22.07.2015 21:35 28,4 C 48 % 1006,5 hPa 0,0 l/m 7,2 km/h (2 Bft) O 100 0 min 0,000 mm 0,0 UV-I 0 W/m 16,3 C 28,3 C 11,9 km/h (2 Bft) 0,00 %
22.07.2015 21:40 28,1 C 51 % 1006,6 hPa 0,0 l/m 6,8 km/h (2 Bft) N 352 0 min 0,000 mm 0,0 UV-I 0 W/m 17,0 C 28,0 C 7,9 km/h (2 Bft) 0,00 %
22.07.2015 21:45 27,6 C 52 % 1006,8 hPa 0,0 l/m 4,0 km/h (1 Bft) W-NW 287 0 min 0,000 mm 0,0 UV-I 0 W/m 16,8 C 27,6 C 7,9 km/h (2 Bft) 0,00 %
22.07.2015 21:50 27,2 C 53 % 1006,9 hPa 0,0 l/m 4,0 km/h (1 Bft) W-NW 293 0 min 0,000 mm 0,0 UV-I 0 W/m 16,8 C 27,2 C 7,9 km/h (2 Bft) 0,00 %
22.07.2015 21:55 26,9 C 54 % 1006,9 hPa 0,0 l/m 2,2 km/h (1 Bft) W-NW 285 0 min 0,000 mm 0,0 UV-I 0 W/m 16,8 C 26,9 C 4,0 km/h (1 Bft) 0,00 %
22.07.2015 22:00 26,8 C 55 % 1007,2 hPa 0,0 l/m 4,7 km/h (1 Bft) N-NO 32 0 min 0,000 mm 0,0 UV-I 0 W/m 17,0 C 26,8 C 11,9 km/h (2 Bft) 0,00 %
22.07.2015 22:05 26,5 C 55 % 1007,4 hPa 0,0 l/m 2,2 km/h (1 Bft) W-SW 256 0 min 0,000 mm 0,0 UV-I 0 W/m 16,7 C 26,5 C 4,0 km/h (1 Bft) 0,00 %
22.07.2015 22:10 26,4 C 54 % 1007,2 hPa 0,0 l/m 2,9 km/h (1 Bft) N-NO 16 0 min 0,000 mm 0,0 UV-I 0 W/m 16,3 C 26,4 C 4,0 km/h (1 Bft) 0,00 %
22.07.2015 22:15 26,4 C 54 % 1007,1 hPa 0,0 l/m 4,7 km/h (1 Bft) W-SW 256 0 min 0,000 mm 0,0 UV-I 0 W/m 16,3 C 26,4 C 7,9 km/h (2 Bft) 0,00 %
22.07.2015 22:20 26,3 C 54 % 1007,2 hPa 0,0 l/m 2,9 km/h (1 Bft) N 357 0 min 0,000 mm 0,0 UV-I 0 W/m 16,2 C 26,3 C 7,9 km/h (2 Bft) 0,00 %
22.07.2015 22:25 26,1 C 54 % 1007,2 hPa 0,0 l/m 2,2 km/h (1 Bft) NO 54 0 min 0,000 mm 0,0 UV-I 0 W/m 16,0 C 26,1 C 4,0 km/h (1 Bft) 0,00 %
22.07.2015 22:30 25,9 C 55 % 1007,4 hPa 0,0 l/m 3,2 km/h (1 Bft) NW 326 0 min 0,000 mm 0,0 UV-I 0 W/m 16,2 C 25,9 C 7,9 km/h (2 Bft) 0,00 %
22.07.2015 22:35 25,8 C 55 % 1007,3 hPa 0,0 l/m 0,0 km/h (0 Bft) NO 42 0 min 0,000 mm 0,0 UV-I 0 W/m 16,1 C 25,8 C 0,0 km/h (0 Bft) 0,00 %
22.07.2015 22:40 25,7 C 55 % 1007,4 hPa 0,0 l/m 0,7 km/h (0 Bft) NO 37 0 min 0,000 mm 0,0 UV-I 0 W/m 16,0 C 25,7 C 4,0 km/h (1 Bft) 0,00 %
22.07.2015 22:45 25,5 C 53 % 1007,3 hPa 0,0 l/m 0,0 km/h (0 Bft) NO 56 0 min 0,000 mm 0,0 UV-I 0 W/m 15,2 C 25,5 C 0,0 km/h (0 Bft) 0,00 %
22.07.2015 22:50 25,5 C 51 % 1007,2 hPa 0,0 l/m 0,4 km/h (0 Bft) N-NW 336 0 min 0,000 mm 0,0 UV-I 0 W/m 14,6 C 25,5 C 4,0 km/h (1 Bft) 0,00 %
22.07.2015 22:55 25,5 C 51 % 1007,5 hPa 0,0 l/m 2,9 km/h (1 Bft) W-SW 256 0 min 0,000 mm 0,0 UV-I 0 W/m 14,6 C 25,5 C 4,0 km/h (1 Bft) 0,00 %
22.07.2015 23:00 25,5 C 51 % 1007,4 hPa 0,0 l/m 0,7 km/h (0 Bft) O 86 0 min 0,000 mm 0,0 UV-I 0 W/m 14,6 C 25,5 C 4,0 km/h (1 Bft) 0,00 %
22.07.2015 23:05 25,4 C 51 % 1007,7 hPa 0,0 l/m 4,3 km/h (1 Bft) W-SW 256 0 min 0,000 mm 0,0 UV-I 0 W/m 14,5 C 25,4 C 7,9 km/h (2 Bft) 0,00 %
22.07.2015 23:10 25,4 C 50 % 1008,0 hPa 0,0 l/m 0,0 km/h (0 Bft) N-NW 346 0 min 0,000 mm 0,0 UV-I 0 W/m 14,2 C 25,4 C 0,0 km/h (0 Bft) 0,00 %
22.07.2015 23:15 25,3 C 50 % 1008,0 hPa 0,0 l/m 1,4 km/h (1 Bft) W-NW 297 0 min 0,000 mm 0,0 UV-I 0 W/m 14,1 C 25,3 C 4,0 km/h (1 Bft) 0,00 %
22.07.2015 23:20 25,3 C 52 % 1008,0 hPa 0,0 l/m 1,8 km/h (1 Bft) W-SW 256 0 min 0,000 mm 0,0 UV-I 0 W/m 14,7 C 25,3 C 4,0 km/h (1 Bft) 0,00 %
22.07.2015 23:25 25,3 C 55 % 1008,0 hPa 0,0 l/m 3,2 km/h (1 Bft) N 350 0 min 0,000 mm 0,0 UV-I 0 W/m 15,6 C 25,3 C 7,9 km/h (2 Bft) 0,00 %
22.07.2015 23:30 25,3 C 54 % 1007,9 hPa 0,0 l/m 1,4 km/h (1 Bft) NO 38 0 min 0,000 mm 0,0 UV-I 0 W/m 15,3 C 25,3 C 4,0 km/h (1 Bft) 0,00 %
22.07.2015 23:35 25,3 C 53 % 1008,4 hPa 0,0 l/m 10,4 km/h (2 Bft) W-SW 255 0 min 0,000 mm 0,0 UV-I 0 W/m 15,0 C 24,4 C 15,8 km/h (3 Bft) 0,00 %
22.07.2015 23:40 25,2 C 58 % 1008,5 hPa 0,0 l/m 7,2 km/h (2 Bft) N-NO 25 0 min 0,000 mm 0,0 UV-I 0 W/m 16,3 C 25,0 C 7,9 km/h (2 Bft) 0,00 %
22.07.2015 23:45 25,0 C 62 % 1008,7 hPa 0,0 l/m 4,0 km/h (1 Bft) SO 135 0 min 0,000 mm 0,0 UV-I 0 W/m 17,2 C 25,0 C 7,9 km/h (2 Bft) 0,00 %
22.07.2015 23:50 24,6 C 65 % 1008,9 hPa 0,0 l/m 5,8 km/h (2 Bft) W-SW 256 0 min 0,000 mm 0,0 UV-I 0 W/m 17,6 C 24,6 C 7,9 km/h (2 Bft) 0,00 %
_ Min-Zeit 05:40 15:05 20:00 - 00:00 - - - - - - 15:05 05:40 00:00 00:00
Minimum _ 16,4 C 24 % 1004,5 hPa - 0,0 km/h (0 Bft) - - - - - - 11,6 C 16,4 C 0,0 km/h (0 Bft) 0,00 %
_ Max-Zeit 16:05 06:05 04:55 00:00 14:45 - - 05:55 00:00 12:35 14:55 11:25 16:05 23:35 00:00
Maximum _ 35,9 C 90 % 1014,3 hPa 0,0 l/m 10,4 km/h
O-SO (2 Bft)
- - 5 min 0,000 mm 6,0 UV-I 984 W/m 18,0 C 35,9 C 15,8 km/h
W-SW (3 Bft)
0,00 %
Durchschnitt _ 27,7 C 52 % 1009,7 hPa #0,0 l/m 1,5 km/h (1 Bft) O-NO - #12:55 h #0,000 mm 2,9 UV-I 602 W/m 15,4 C 27,7 C 2,9 km/h (1 Bft) 0,00 %